Theta_e
303 304 305 306 308 305 309 315 313 312 312 312 312 312 312 313 310 314 316 315 316 316 317 321 322 319 319 318 319 320 329 332 328 319 315 314 316 319 325 324 323 323 324 323 335
303 305 306 307 309 305 311 314 312 310 311 312 312 311 312 313 316 316 311 310 314 316 318 321 322 319 318 320 320 324 329 330 317 314 314 315 315 314 326 327 327 325 321 325 334
302 305 306 307 308 306 313 313 311 309 309 310 311 310 312 315 317 315 310 310 315 316 317 318 321 320 320 320 320 322 325 315 314 316 313 315 315 315 319 319 320 324 322 319 322
302 304 305 306 306 307 313 313 311 310 309 308 309 310 312 316 318 313 310 312 315 316 317 321 321 322 322 322 320 323 316 314 316 313 313 315 315 316 315 315 317 317 319 318 318
301 303 305 304 304 307 311 311 309 308 308 308 309 312 314 316 312 313 310 314 316 315 317 321 323 322 322 320 320 319 316 314 312 312 313 314 316 316 316 315 315 317 318 317 316
301 302 304 303 303 305 311 310 308 308 309 310 311 313 314 313 311 315 310 315 316 315 316 316 320 319 320 321 320 317 316 315 314 313 314 314 315 314 315 314 316 318 316 315 315
301 302 304 305 303 305 311 311 308 309 310 311 312 313 310 309 313 313 313 317 317 315 315 315 315 319 319 319 318 318 318 316 316 314 314 314 315 315 312 314 316 315 312 312 312
301 302 303 304 302 306 310 311 309 309 308 310 312 312 308 313 313 313 316 319 315 314 315 315 318 318 318 317 318 318 319 321 317 314 313 315 320 313 312 313 315 313 311 311 310
301 302 303 304 302 306 310 309 309 310 311 311 313 312 309 312 313 313 316 317 314 314 313 314 316 318 318 319 318 320 325 322 319 314 313 315 319 314 311 313 314 312 311 310 309
301 302 303 302 303 307 311 309 310 311 312 313 313 307 306 313 312 312 312 316 315 314 314 314 314 317 318 321 327 324 325 321 323 318 316 315 314 314 312 311 312 312 311 310 310
300 300 302 303 304 309 311 312 310 310 311 311 309 308 310 312 310 312 314 315 314 314 315 315 315 318 319 321 318 323 324 324 321 320 317 318 318 315 312 311 311 312 312 311 310
300 297 299 304 305 307 308 304 302 304 311 311 309 309 309 310 310 311 313 313 314 314 315 314 316 316 318 318 317 321 325 324 322 316 320 319 319 318 314 312 312 313 313 311 310
298 297 299 303 306 307 304 302 305 305 311 313 312 309 309 309 310 310 311 312 313 313 315 316 315 315 316 316 318 317 319 321 322 317 316 315 315 316 315 313 311 312 313 312 311
296 298 299 303 305 304 302 303 304 306 307 313 313 310 308 309 311 309 309 310 315 314 314 315 314 315 315 317 316 318 316 316 319 320 319 315 321 315 317 316 314 313 312 312 310
296 296 301 302 303 302 303 304 305 306 305 313 313 310 309 307 309 310 309 310 311 315 313 314 313 314 316 315 315 316 314 315 317 318 318 319 314 316 315 319 316 313 312 312 310
296 297 300 301 301 302 304 304 307 301 305 310 310 311 309 307 308 309 310 308 309 311 312 313 310 312 313 314 314 313 314 315 315 315 312 316 316 313 316 318 317 314 311 311 309
297 297 298 301 299 302 304 306 303 302 304 309 312 310 311 307 309 309 310 308 310 311 312 312 312 311 311 314 314 314 314 312 313 320 317 314 318 315 315 315 315 314 311 309 309
296 298 297 298 300 303 305 301 300 304 308 310 309 311 310 308 307 308 308 309 308 308 309 313 310 311 310 312 314 313 313 314 318 320 317 313 317 315 312 310 309 310 309 308 308
297 298 297 297 302 304 299 298 299 304 308 310 311 311 310 310 310 307 306 307 307 306 309 308 310 310 309 311 312 313 315 312 314 310 314 313 311 310 308 308 308 309 308 308 307
297 297 296 297 301 303 298 305 302 306 307 310 309 310 310 310 308 308 308 305 306 306 306 308 310 309 310 311 311 312 311 315 312 312 317 314 312 313 312 311 307 307 308 305 303
296 294 295 298 301 297 297 303 304 305 306 310 309 311 312 311 308 308 308 307 305 306 305 307 308 308 311 311 312 312 313 313 312 312 317 316 313 308 310 310 308 305 306 304 302
294 289 295 298 291 296 298 292 301 304 305 307 309 310 308 311 312 310 308 307 306 306 307 307 309 307 308 309 309 310 312 312 313 313 311 313 314 309 307 307 306 305 305 303 302
290 288 295 297 288 281 290 294 299 303 304 305 307 308 308 309 311 312 311 309 308 307 307 308 304 301 306 306 308 310 311 311 312 313 315 316 313 306 305 306 306 304 304 303 299
287 285 286 288 292 293 288 291 295 299 303 304 306 305 307 308 309 307 311 310 308 308 309 309 310 308 308 305 307 311 311 311 312 314 315 315 314 311 307 306 304 303 302 301 300
286 284 284 283 286 287 293 291 294 295 296 300 302 304 306 303 305 308 309 310 309 308 308 309 308 307 308 307 309 308 307 309 312 312 314 313 313 312 311 310 304 303 301 300 299
285 285 283 286 291 289 290 285 294 297 295 294 295 301 303 303 303 306 305 308 311 305 308 309 308 307 309 308 306 308 308 309 308 309 311 312 312 311 309 306 306 305 301 301 300
292 290 287 290 290 289 287 291 294 296 296 295 296 296 298 299 298 302 302 301 303 303 304 304 308 309 311 307 306 309 308 307 307 306 307 310 311 310 309 307 308 309 301 302 301
Wind_Speed
14 13 13 4 5 8 12 4 10 13 10 10 8 8 6 4 4 5 1 3 3 6 1 3 3 3 8 3 4 4 4 2 3 2 3 5 4 4 6 6 5 5 4 1 19
16 16 12 5 8 8 14 4 12 11 14 10 8 8 6 6 2 4 0 4 8 7 2 7 4 5 3 3 4 4 3 3 2 1 4 4 5 4 5 4 5 6 6 13 13
17 18 16 11 12 7 12 15 12 12 11 10 8 6 6 5 0 3 1 6 11 4 4 8 11 4 4 2 4 3 3 3 2 2 3 4 3 3 9 5 1 6 5 8 14
18 18 16 16 13 15 10 16 11 8 6 8 9 8 8 3 5 3 1 9 9 2 7 16 5 2 3 2 3 5 7 5 1 4 2 3 5 4 5 4 8 7 8 7 10
18 17 17 15 8 17 18 11 8 8 11 10 10 12 4 4 3 4 1 10 9 2 2 4 5 3 5 2 2 5 2 6 6 7 6 7 5 5 4 7 9 11 11 9 9
16 16 17 17 10 15 14 11 9 10 9 7 8 11 2 5 3 5 5 11 8 3 5 6 3 7 5 3 3 3 7 4 5 5 3 5 3 3 3 7 8 9 9 8 9
16 16 15 13 10 12 10 8 9 8 7 8 10 1 4 4 3 4 7 5 5 6 3 7 3 3 5 5 1 2 4 5 4 1 2 4 0 3 8 8 7 8 7 7 6
15 17 17 17 10 11 7 8 10 9 7 6 5 4 3 4 5 9 3 2 6 10 8 7 14 6 4 5 3 4 4 3 2 4 2 3 4 3 8 10 9 8 6 6 4
14 14 15 15 11 8 7 10 11 11 10 7 1 1 3 4 5 4 5 3 6 8 5 5 5 4 2 5 4 4 2 0 2 7 4 4 4 6 8 8 8 9 8 7 6
13 14 14 14 8 9 9 13 13 11 4 3 4 5 3 3 2 3 2 8 3 3 4 4 4 3 2 1 3 5 4 3 3 5 6 5 8 6 8 8 8 9 8 8 7
13 13 12 12 10 10 12 11 4 5 9 5 3 4 3 4 4 3 3 4 3 2 3 2 4 4 9 5 4 7 4 4 4 2 6 7 8 8 10 7 9 8 10 10 9
13 12 13 11 13 7 4 5 2 1 6 7 8 6 6 4 4 4 4 2 2 4 2 4 2 5 4 6 5 5 5 4 1 2 1 6 11 10 7 10 12 13 13 13 10
12 12 9 9 10 19 19 7 5 2 3 4 4 4 2 5 3 4 3 1 3 2 4 5 3 4 6 4 3 2 2 4 2 2 2 4 7 9 9 12 10 11 15 15 16
11 11 6 7 5 6 5 6 4 2 4 3 3 3 3 3 4 0 5 1 2 7 4 4 6 7 7 3 3 2 5 1 5 2 3 3 6 5 5 11 13 16 14 15 14
10 8 9 7 6 4 0 3 2 2 4 3 3 4 3 4 2 4 4 4 1 2 5 5 3 5 4 3 4 1 3 3 2 2 3 3 1 7 5 6 11 15 14 12 15
11 9 3 6 4 4 4 2 4 5 1 3 4 2 2 3 3 3 4 4 2 3 1 4 2 1 4 4 4 5 4 1 3 1 2 7 6 4 4 6 5 7 12 12 13
9 12 7 2 2 3 2 2 5 5 3 1 1 3 1 2 3 1 1 1 3 3 2 3 2 1 2 2 2 4 5 2 2 1 5 1 4 8 7 7 6 8 12 12 14
7 7 9 8 4 3 3 5 5 3 2 2 2 2 2 4 2 4 2 2 5 1 2 5 5 8 6 7 6 6 7 4 5 3 4 0 6 6 6 2 2 2 7 10 13
4 6 4 9 4 5 5 4 7 5 6 7 2 4 4 3 3 4 5 5 7 7 5 2 5 1 6 4 9 4 8 3 2 1 1 4 7 8 2 4 2 4 6 12 13
3 2 5 9 6 5 4 5 2 1 1 3 5 4 6 4 5 6 4 5 5 10 7 3 3 3 1 2 2 5 4 1 1 2 5 5 5 8 4 5 5 5 6 5 6
1 3 6 5 5 4 3 3 4 3 0 4 5 5 4 5 7 4 5 4 8 6 8 6 4 3 2 4 6 2 3 4 5 5 4 3 5 5 6 6 6 7 8 9 10
2 2 6 5 4 1 3 4 3 4 2 1 1 2 7 7 5 7 6 6 5 4 7 5 4 5 8 6 8 6 8 8 5 4 4 3 13 4 7 6 6 9 7 8 10
3 1 5 4 3 2 3 3 1 3 4 4 3 2 3 6 3 6 6 5 6 3 5 6 1 2 8 5 3 6 9 6 6 2 8 6 8 1 3 3 3 7 8 8 9
3 2 3 4 1 4 4 4 2 3 3 5 4 3 2 3 2 2 2 1 3 0 4 2 3 8 10 5 2 5 9 11 15 9 20 16 28 14 5 6 6 7 9 9 11
2 4 4 2 3 3 3 5 3 3 2 3 4 6 8 4 2 4 4 2 1 6 1 4 8 6 15 11 2 5 6 8 14 17 15 24 23 25 17 15 8 13 9 10 13
4 4 3 2 3 6 3 5 9 4 7 5 6 9 10 7 8 5 3 2 1 4 3 2 4 5 14 17 9 11 13 9 14 17 18 22 25 31 12 7 11 13 11 13 14
5 4 4 3 4 5 5 6 9 4 5 6 9 4 2 7 3 3 3 5 7 3 0 4 3 2 15 15 10 11 23 27 23 17 18 18 28 22 16 10 14 17 11 16 19
Wind_Direction
30 14 0 349 16 317 333 5 154 163 167 150 165 160 168 147 131 115 141 124 131 134 202 173 175 22 59 26 344 357 70 146 209 97 137 32 110 36 46 77 52 41 65 328 127
27 17 12 46 14 294 335 129 144 164 165 172 168 173 162 154 162 104 59 151 160 144 216 191 154 66 35 8 5 56 104 132 13 20 90 64 55 94 79 60 74 84 55 79 125
29 22 29 34 21 305 358 152 133 138 172 180 172 164 163 130 130 69 142 159 144 133 281 280 137 84 49 356 349 25 96 129 9 53 28 88 52 47 132 68 39 140 114 65 87
27 25 30 29 20 357 68 113 122 131 144 155 177 165 155 51 104 348 178 143 126 103 321 106 107 72 80 59 325 105 66 102 122 14 34 73 104 55 43 133 126 121 122 109 90
23 22 25 32 36 358 50 87 93 108 120 143 163 149 143 71 72 352 40 134 112 15 299 138 162 139 102 74 17 74 82 62 89 71 65 63 75 117 110 133 135 133 119 116 115
24 20 22 32 11 8 46 72 112 121 124 141 149 154 280 78 20 8 136 145 125 306 34 6 163 106 94 87 64 45 87 94 88 87 67 102 156 75 203 155 150 135 112 101 96
22 20 22 33 34 17 49 70 121 109 107 133 158 23 2 116 6 115 149 122 29 323 70 27 47 99 128 106 150 76 80 65 31 32 103 115 237 216 161 150 152 120 115 98 100
22 18 20 22 17 24 54 66 109 104 121 134 149 349 57 47 100 117 118 80 69 88 90 27 95 95 88 120 66 62 57 121 208 161 167 176 253 174 178 158 171 159 141 135 146
18 28 22 12 31 24 67 89 101 103 110 117 8 154 42 55 69 136 125 109 63 73 57 23 61 94 65 101 63 25 138 183 203 204 149 207 234 171 183 183 184 167 160 163 167
21 21 22 32 34 26 99 104 100 86 75 318 304 64 350 73 50 349 143 151 70 84 27 17 71 82 356 106 165 152 169 195 239 223 195 202 242 178 195 194 200 182 169 172 176
19 18 22 39 55 51 108 113 30 24 28 69 47 77 53 100 82 328 49 169 90 32 108 286 85 183 217 197 117 148 145 173 201 231 196 244 265 229 200 204 213 196 174 183 183
19 24 24 53 52 79 78 74 62 101 72 28 80 48 46 1 79 347 0 95 116 176 132 36 214 223 155 135 100 124 159 202 109 94 144 285 274 267 198 215 205 194 191 187 178
24 33 48 64 64 76 77 73 93 51 86 12 13 68 350 353 112 189 21 257 176 208 180 166 254 157 107 80 103 288 184 203 193 157 279 346 279 243 227 208 209 213 199 192 178
27 43 81 101 64 62 56 27 35 79 78 344 25 15 350 306 50 37 31 346 243 205 208 247 265 131 129 170 166 292 223 49 115 89 264 127 292 308 246 222 205 208 198 193 179
28 40 74 99 130 92 345 351 10 161 79 359 29 324 343 41 154 15 6 355 3 263 104 252 143 127 124 191 181 200 100 138 201 267 302 192 357 269 256 255 222 217 208 192 181
30 33 98 89 103 122 172 198 180 40 53 6 328 84 76 18 42 5 360 359 257 351 353 203 230 73 184 205 203 165 104 11 15 91 332 221 174 265 226 210 249 205 208 181 173
49 31 55 73 355 338 325 0 43 100 272 16 35 134 214 150 89 147 155 272 174 91 269 342 212 182 88 147 102 139 90 354 335 237 241 314 183 248 265 248 223 220 199 180 171
64 57 31 43 1 360 15 52 84 232 229 70 156 129 229 132 183 190 170 225 282 57 154 181 297 159 193 187 182 184 163 162 222 227 267 196 238 253 241 158 34 178 198 168 168
43 63 23 10 37 17 67 70 188 204 153 150 96 134 215 172 109 157 211 208 209 182 197 232 252 186 161 173 145 227 219 199 351 0 343 241 290 297 142 242 241 230 158 179 175
41 36 14 3 9 19 75 147 170 104 279 155 161 173 178 202 164 181 224 226 212 204 167 253 297 0 355 74 289 159 177 161 359 264 254 265 248 238 278 275 229 237 197 165 145
51 66 348 3 26 46 140 158 199 109 136 177 213 169 189 181 185 204 227 268 201 213 178 174 148 278 119 194 192 154 211 207 165 180 222 294 262 217 226 211 195 220 199 173 172
74 74 352 358 54 48 170 192 308 142 63 282 315 256 206 184 201 203 235 225 217 177 211 204 171 218 232 232 210 211 216 196 189 231 232 237 263 232 213 226 164 199 206 179 177
102 171 28 8 135 272 317 299 266 134 171 179 229 249 340 213 215 215 209 226 224 198 199 175 243 27 328 328 255 221 224 219 250 214 223 203 262 346 61 155 167 188 206 186 175
92 89 333 34 106 147 145 250 239 231 202 180 213 65 305 246 313 252 266 284 27 228 82 77 172 189 225 210 95 206 211 217 220 234 241 235 260 240 265 232 235 226 210 195 190
73 231 186 206 278 177 155 167 169 204 248 209 203 187 199 226 289 232 229 294 53 355 330 130 224 228 253 269 271 229 269 268 239 239 237 247 248 259 245 263 221 227 204 194 197
134 131 351 176 116 128 221 236 190 197 155 245 170 198 194 198 189 193 132 155 259 39 339 157 251 194 263 265 238 258 273 248 254 264 259 256 261 259 256 237 245 241 199 203 207
173 123 108 198 142 128 220 207 203 176 234 191 195 164 190 228 209 293 198 182 184 176 4 314 326 281 252 255 257 255 240 243 247 241 236 249 252 271 264 240 252 260 187 209 211